Wind_Speed
14 14 14 14 15 14 13 12 10 8 6 5 3 2 2 3 5 7 9 10 10 12 12 13 13 13 14 14 14 14 14 13 13 13 13 13 13 13 14 17 19 20 19
14 15 14 15 15 14 14 13 11 9 7 6 4 2 1 2 4 6 8 9 10 11 12 12 13 13 14 14 14 13 13 13 14 13 13 13 14 14 16 18 19 20 19
14 15 15 15 15 15 14 13 12 10 8 6 4 2 0 1 3 5 7 8 9 10 11 12 13 14 14 14 14 14 13 13 14 15 14 14 14 16 18 19 19 20 20
14 15 15 15 16 16 15 14 13 12 9 7 5 4 2 1 2 4 6 7 8 9 11 11 13 13 13 13 13 14 15 14 14 15 14 15 15 16 18 20 20 20 20
14 15 15 15 16 16 16 15 15 13 11 9 7 5 3 2 2 3 5 6 7 8 10 11 12 13 12 12 12 13 15 15 14 14 15 15 17 18 18 19 20 19 20
14 15 16 15 16 17 17 16 16 14 13 11 9 7 5 3 3 3 4 5 6 8 10 11 12 13 12 12 11 13 15 15 15 14 15 16 16 18 18 19 19 18 19
14 15 16 16 17 17 18 17 17 15 14 13 11 9 6 4 3 3 4 4 5 7 9 10 11 12 12 12 12 13 14 14 15 15 16 16 16 17 18 18 19 19 19
13 14 15 16 17 17 18 18 17 16 14 13 12 10 8 6 4 3 3 4 5 6 7 9 10 12 12 12 13 13 14 15 15 16 17 17 17 17 17 18 18 19 21
13 13 14 15 16 17 18 18 17 17 16 14 13 11 9 7 5 3 2 2 4 5 6 8 9 10 12 13 14 14 14 15 15 16 17 18 18 19 19 19 19 20 21
12 13 13 14 15 16 17 18 17 17 16 15 14 12 10 8 6 5 3 2 2 3 5 7 8 10 11 12 13 13 15 15 16 16 18 18 19 19 20 20 20 20 20
11 12 13 14 15 15 16 17 17 16 16 15 15 13 12 10 8 6 5 3 2 1 3 5 7 8 10 12 12 12 14 15 16 16 17 18 19 20 20 20 21 21 21
11 12 13 13 14 14 15 16 16 16 15 15 15 13 12 11 9 7 5 4 3 1 1 3 5 7 9 10 12 13 14 15 16 17 17 18 20 20 20 20 20 21 22
11 12 12 13 14 14 14 14 14 14 14 14 14 13 12 11 10 8 6 6 4 2 2 3 5 6 7 9 11 12 14 15 17 17 18 19 20 21 21 22 21 22 23
10 11 12 13 14 13 13 13 13 13 13 13 14 13 12 11 10 9 7 6 5 4 3 3 4 6 7 9 11 12 14 15 17 18 19 20 21 22 22 23 24 24 25
9 10 11 12 13 13 13 13 13 13 13 12 12 12 12 11 10 9 8 7 6 5 5 5 6 7 8 9 11 13 14 16 17 18 20 20 21 23 24 24 25 25 26
8 9 10 11 13 13 13 13 13 13 12 12 11 11 12 11 10 9 8 8 7 7 7 7 8 9 10 10 11 13 14 15 17 19 20 22 23 24 25 26 26 27 27
8 8 9 11 12 13 13 13 13 13 13 12 11 11 11 11 10 10 10 9 9 9 9 9 10 11 12 13 13 15 16 17 18 19 21 22 24 25 26 27 28 29 29
8 9 10 11 11 12 12 13 13 14 14 13 13 12 12 11 11 11 11 11 12 12 12 12 13 13 15 16 17 17 18 20 20 21 22 24 25 26 28 28 29 29 30
9 10 12 12 12 12 13 13 14 14 15 15 15 14 14 13 13 13 13 14 14 15 15 16 16 17 18 19 19 20 21 22 24 24 25 26 27 29 30 30 31 31 32
12 12 13 13 13 13 14 15 15 16 17 17 17 17 17 16 16 16 16 17 17 18 19 19 20 21 22 22 23 23 24 25 26 27 28 28 29 31 32 32 33 34 34
13 14 14 14 15 15 16 17 18 19 19 19 19 20 20 19 19 19 20 20 21 22 23 24 24 25 26 27 27 28 28 29 29 30 31 31 32 33 34 35 35 36 36
15 16 16 17 17 18 19 20 21 21 22 22 22 23 23 22 22 23 23 24 25 25 26 27 28 29 30 30 31 32 32 33 33 33 34 34 35 35 36 37 38 38 39
18 18 19 20 20 21 22 22 23 24 24 25 25 25 26 26 26 26 27 28 29 30 31 32 33 34 34 34 35 35 36 37 36 36 36 36 37 37 38 39 40 41 42
20 21 21 23 24 24 25 25 26 27 27 27 28 28 28 28 29 30 31 32 33 34 35 36 38 38 39 40 40 41 41 40 40 40 40 40 40 40 40 41 42 43 44
22 23 24 25 26 27 27 28 29 29 30 30 31 31 31 32 32 33 34 35 36 37 38 40 41 42 43 44 45 45 45 45 44 44 45 45 44 44 44 44 45 45 46
25 26 26 27 28 29 30 31 32 32 33 34 34 34 34 35 36 36 37 38 39 40 41 42 44 45 46 48 48 49 49 48 48 48 49 49 49 49 48 48 48 48 49
Wind_Direction
9 9 8 8 8 7 7 6 4 2 360 349 335 311 261 227 218 216 214 213 211 209 206 206 207 207 204 203 201 202 202 201 198 200 201 203 199 197 193 190 190 189 189
14 13 14 14 13 12 11 12 11 9 7 360 352 341 298 224 212 207 209 210 209 208 207 208 209 208 206 208 205 204 207 206 201 201 202 203 198 195 192 188 189 188 190
19 17 18 19 20 18 17 18 17 16 15 12 12 13 352 213 198 198 202 206 209 212 208 209 207 208 210 212 211 212 210 206 201 199 199 199 198 196 194 193 192 192 194
23 21 23 24 24 23 23 24 24 24 25 29 33 38 51 127 176 189 198 203 208 209 206 208 208 211 211 214 216 213 210 204 201 198 199 197 195 195 195 195 195 194 196
26 25 27 28 28 28 29 30 30 29 30 35 41 46 54 90 152 178 190 197 206 208 203 206 211 212 208 210 214 211 207 204 203 201 201 199 198 197 198 197 197 198 200
30 29 31 32 31 31 31 32 32 33 35 38 42 46 56 82 120 153 173 188 198 205 203 206 210 210 208 208 209 204 204 204 208 207 205 203 201 200 202 202 201 201 200
34 33 33 34 33 32 32 32 33 37 40 42 42 44 53 74 98 133 162 178 184 193 200 206 212 210 208 209 207 206 207 207 212 211 207 205 204 205 207 205 204 205 204
34 34 34 34 33 33 33 34 36 38 40 40 41 44 50 63 78 102 142 171 181 191 201 206 211 214 210 212 211 210 212 214 216 215 211 209 211 210 210 212 210 209 210
32 33 32 31 31 33 35 36 37 39 40 41 43 46 52 60 65 80 111 153 184 197 204 206 210 216 215 215 214 216 217 218 220 220 218 216 217 218 218 220 218 216 214
32 32 31 30 32 34 35 35 35 37 40 42 43 45 49 54 58 66 87 115 170 196 206 212 217 222 225 226 226 227 225 227 227 225 224 222 222 223 222 222 220 219 218
31 29 29 28 30 32 32 32 34 36 39 42 42 44 45 48 54 59 65 74 97 181 215 222 227 232 237 239 236 237 235 236 235 231 230 228 227 228 228 225 222 222 221
27 25 24 24 26 27 28 30 33 35 37 39 41 43 44 46 48 49 50 57 60 67 239 235 239 243 248 249 245 248 244 243 241 239 237 235 232 231 231 229 227 228 228
22 21 20 20 22 23 25 27 30 31 33 35 37 39 41 42 41 42 41 38 36 18 326 280 261 259 260 257 254 255 253 250 247 245 244 243 239 236 235 234 232 232 233
17 17 17 17 18 20 22 24 25 26 26 29 31 33 32 33 34 35 33 29 22 3 332 306 290 280 275 268 263 258 258 258 254 250 248 247 246 244 243 242 238 236 236
10 11 15 18 17 18 19 20 20 19 19 20 21 22 22 23 23 25 22 16 8 353 332 315 300 289 283 278 271 267 263 261 259 257 254 251 249 248 247 247 246 243 240
1 6 12 12 13 13 13 12 12 12 11 10 11 11 11 11 10 8 5 1 355 347 332 314 303 297 293 290 282 276 271 268 265 262 258 255 253 252 249 249 249 249 246
352 357 359 2 4 5 6 6 5 3 2 359 357 358 359 357 355 352 347 343 340 334 327 317 308 301 296 291 288 283 278 275 273 269 264 261 257 254 253 252 251 251 250
339 344 345 348 350 352 354 355 355 354 352 350 347 346 345 342 339 335 332 328 325 324 320 315 310 304 299 294 291 288 284 279 276 272 268 266 264 259 257 256 254 254 253
327 331 334 335 337 340 342 343 344 344 343 341 339 336 333 329 327 325 322 318 316 314 313 309 305 302 299 296 294 291 288 284 279 275 273 270 267 264 260 258 256 255 255
316 319 322 325 327 329 331 333 334 334 332 331 330 327 324 321 318 316 314 312 310 309 307 305 303 301 298 296 294 291 289 287 283 279 276 273 269 266 263 261 258 256 256
308 310 314 317 319 320 321 323 324 325 325 324 323 320 317 315 312 310 308 307 306 305 304 303 301 300 297 295 293 291 289 287 286 282 278 274 271 267 264 262 259 257 256
304 303 305 308 312 313 315 316 317 317 318 317 316 314 312 310 308 305 305 304 304 303 303 302 300 299 297 295 294 292 290 288 286 283 279 275 272 270 267 264 261 258 256
301 301 300 303 306 309 310 311 312 312 312 311 310 310 308 306 305 303 303 302 302 302 302 301 300 299 297 295 294 292 290 288 286 283 280 277 274 271 268 266 264 261 258
298 300 300 301 303 306 306 307 308 308 309 307 306 305 305 303 302 301 301 302 302 302 302 301 300 299 298 297 295 293 291 288 285 283 280 278 275 272 270 268 265 263 260
296 298 300 301 303 304 304 304 305 306 306 305 304 304 303 301 301 300 300 300 301 301 301 300 300 299 298 297 296 293 291 288 285 282 280 278 275 273 270 267 266 264 262
295 297 298 300 302 302 302 302 303 304 304 303 303 302 301 300 300 299 299 300 300 300 300 300 300 299 299 297 296 293 291 288 286 283 280 277 275 273 270 267 265 264 263
Height
5872 5870 5867 5864 5861 5858 5856 5853 5851 5849 5848 5847 5846 5845 5846 5846 5847 5848 5850 5851 5853 5855 5856 5858 5860 5861 5863 5865 5867 5868 5870 5871 5873 5874 5875 5876 5876 5875 5874 5876 5881 5887 5891
5872 5870 5867 5864 5861 5858 5856 5853 5851 5849 5847 5846 5845 5844 5845 5845 5846 5847 5848 5850 5852 5854 5855 5857 5858 5860 5862 5864 5865 5867 5869 5870 5872 5873 5874 5875 5875 5876 5877 5879 5883 5887 5891
5873 5870 5867 5865 5862 5859 5856 5853 5851 5849 5847 5845 5844 5844 5844 5844 5845 5846 5847 5849 5851 5852 5854 5856 5857 5859 5861 5862 5863 5865 5867 5868 5870 5872 5874 5874 5875 5876 5878 5881 5884 5887 5890
5873 5871 5868 5865 5862 5859 5857 5854 5851 5849 5847 5846 5844 5844 5844 5844 5844 5845 5847 5848 5850 5851 5853 5855 5857 5858 5859 5859 5860 5861 5864 5866 5869 5871 5873 5874 5875 5876 5878 5880 5883 5886 5889
5874 5871 5869 5866 5863 5861 5858 5855 5852 5850 5848 5846 5845 5844 5844 5844 5844 5845 5846 5847 5849 5850 5852 5853 5855 5857 5857 5858 5858 5859 5862 5866 5868 5870 5872 5874 5875 5876 5878 5880 5883 5886 5888
5875 5873 5870 5867 5865 5862 5859 5856 5854 5851 5849 5848 5846 5845 5844 5844 5844 5845 5846 5847 5848 5850 5851 5853 5854 5856 5856 5857 5857 5859 5862 5865 5867 5870 5871 5873 5874 5876 5878 5880 5882 5885 5887
5876 5874 5871 5869 5866 5864 5861 5858 5855 5853 5851 5849 5848 5846 5845 5845 5845 5846 5846 5847 5848 5849 5850 5852 5853 5855 5856 5857 5858 5860 5862 5865 5867 5869 5870 5872 5874 5875 5877 5879 5881 5884 5886
5878 5875 5873 5870 5868 5865 5862 5860 5857 5854 5852 5850 5849 5848 5847 5847 5846 5846 5847 5847 5848 5849 5850 5851 5852 5854 5856 5857 5859 5860 5862 5864 5866 5868 5869 5871 5873 5875 5876 5878 5880 5882 5884
5879 5877 5874 5872 5870 5867 5864 5862 5859 5856 5854 5852 5850 5849 5848 5847 5847 5847 5847 5848 5848 5849 5850 5851 5852 5853 5855 5857 5858 5860 5862 5863 5865 5866 5868 5870 5871 5873 5875 5876 5878 5880 5882
5880 5878 5876 5874 5871 5869 5866 5863 5861 5858 5856 5854 5852 5850 5849 5848 5848 5848 5848 5848 5849 5849 5850 5851 5852 5853 5855 5856 5857 5859 5860 5862 5863 5864 5866 5868 5869 5871 5873 5874 5876 5878 5880
5881 5879 5877 5875 5872 5870 5867 5865 5862 5860 5857 5855 5854 5852 5851 5850 5849 5849 5849 5849 5849 5850 5850 5851 5852 5853 5854 5855 5856 5858 5859 5860 5861 5863 5864 5865 5867 5869 5871 5872 5874 5875 5877
5882 5880 5878 5875 5873 5870 5868 5865 5863 5861 5859 5857 5855 5854 5852 5851 5851 5850 5850 5850 5850 5850 5851 5851 5852 5852 5853 5854 5855 5856 5857 5858 5859 5860 5862 5863 5864 5866 5868 5869 5871 5872 5875
5883 5881 5878 5876 5873 5871 5868 5866 5864 5862 5860 5858 5857 5855 5854 5853 5852 5851 5851 5851 5850 5851 5851 5851 5851 5852 5852 5852 5853 5854 5855 5856 5856 5857 5859 5860 5861 5863 5864 5866 5867 5869 5871
5883 5881 5879 5876 5873 5871 5868 5866 5864 5862 5861 5859 5858 5856 5855 5854 5853 5852 5852 5851 5851 5851 5850 5850 5850 5850 5851 5851 5851 5852 5852 5853 5853 5854 5855 5856 5858 5859 5860 5862 5864 5865 5867
5883 5881 5879 5877 5874 5871 5869 5866 5864 5863 5861 5859 5858 5857 5856 5855 5853 5853 5852 5851 5851 5850 5850 5849 5849 5849 5849 5849 5849 5849 5849 5849 5850 5850 5851 5852 5853 5854 5856 5857 5859 5860 5862
5883 5881 5879 5876 5874 5871 5869 5866 5865 5863 5861 5860 5858 5857 5856 5854 5853 5852 5852 5851 5850 5849 5848 5848 5847 5847 5846 5846 5846 5846 5846 5846 5846 5846 5847 5847 5848 5849 5851 5852 5853 5855 5856
5882 5880 5878 5876 5874 5871 5869 5867 5865 5863 5861 5859 5858 5857 5855 5854 5853 5851 5850 5850 5849 5848 5847 5846 5845 5844 5844 5843 5842 5842 5842 5841 5841 5841 5841 5842 5842 5843 5845 5846 5847 5849 5850
5881 5880 5878 5876 5873 5871 5869 5867 5864 5862 5861 5859 5857 5856 5854 5853 5851 5850 5849 5848 5847 5846 5845 5844 5842 5841 5840 5839 5838 5837 5837 5836 5836 5836 5836 5836 5836 5837 5838 5839 5840 5841 5843
5880 5878 5876 5874 5872 5870 5868 5866 5864 5861 5859 5858 5856 5854 5852 5850 5849 5847 5846 5845 5844 5842 5841 5840 5838 5837 5836 5834 5833 5832 5830 5830 5829 5829 5829 5828 5829 5829 5830 5831 5832 5833 5835
5878 5876 5874 5872 5870 5868 5866 5864 5862 5859 5857 5855 5853 5851 5849 5847 5845 5844 5843 5841 5840 5838 5837 5835 5833 5832 5830 5828 5827 5825 5824 5823 5822 5821 5820 5820 5820 5821 5821 5822 5824 5825 5826
5875 5873 5872 5870 5868 5866 5863 5861 5859 5856 5854 5852 5849 5847 5845 5843 5841 5839 5838 5836 5834 5833 5831 5829 5827 5825 5823 5821 5819 5817 5816 5815 5813 5812 5811 5811 5810 5811 5811 5812 5813 5814 5816
5872 5870 5868 5866 5864 5862 5860 5857 5855 5852 5849 5847 5844 5842 5840 5838 5835 5834 5832 5830 5828 5826 5824 5822 5820 5817 5815 5812 5810 5808 5806 5805 5804 5802 5800 5800 5799 5799 5800 5801 5802 5803 5804
5867 5866 5864 5862 5860 5857 5855 5852 5850 5847 5844 5841 5838 5836 5833 5831 5829 5827 5825 5823 5820 5818 5815 5813 5810 5807 5805 5803 5800 5798 5795 5793 5792 5790 5789 5788 5787 5787 5788 5788 5789 5791 5792
5862 5860 5859 5856 5854 5852 5849 5847 5844 5840 5837 5834 5832 5829 5826 5823 5821 5818 5816 5814 5811 5809 5806 5803 5800 5796 5793 5790 5787 5785 5782 5780 5779 5777 5775 5775 5774 5774 5774 5775 5776 5777 5778
5857 5855 5853 5850 5848 5845 5843 5840 5837 5833 5830 5827 5824 5821 5818 5815 5812 5810 5807 5805 5802 5799 5795 5792 5788 5784 5780 5776 5773 5770 5767 5765 5764 5763 5760 5759 5759 5758 5759 5760 5761 5762 5763
5850 5848 5846 5843 5841 5838 5835 5832 5829 5826 5822 5819 5816 5812 5809 5806 5803 5800 5797 5794 5791 5788 5784 5780 5776 5772 5767 5762 5757 5753 5750 5748 5746 5745 5743 5741 5741 5740 5742 5744 5744 5745 5747